Location: Newark
(43.0000°N, 1.6781°W)
Time: 04:53:27
(UTC+00:00)

XW-2C - Pass Details

Date: 03 December 2022
Orbit: 491 x 506 km, 97.5° (Epoch: 28 January)

Event Time Altitude Azimuth Distance (km) Brightness Sun altitude
Rises 06:25:44 0° 10° (N) 2,582 ? -9.8°
Reaches altitude 10° 06:27:49 10° 9° (N) 1,694 ? -9.4°
Maximum altitude 06:31:26 74° 285° (WNW) 517 ? -8.8°
Drops below altitude 10° 06:35:03 10° 200° (SSW) 1,680 ? -8.2°
Sets 06:37:06 0° 198° (SSW) 2,559 ? -7.9°
